Kalaeloa, HI

1:25 AM HST on November 24, 2017 (GMT -1000)
Kalaeloa (John Rodgers Field)

Weather History for PHJR - October, 2012

Change the Weather History Date:

Wednesday, October 24, 2012

  Actual Average (PHHI) Record (PHHI)
Temperature  
Mean Temperature 76 °F -  
Max Temperature 82 °F 79 °F 83 °F (2014)
Min Temperature 71 °F 67 °F 62 °F (2010)
Cooling Degree Days 12    
Growing Degree Days 26 (Base 50)    
Moisture  
Dew Point 70 °F    
Average Humidity 79    
Maximum Humidity 94    
Minimum Humidity 67    
Precipitation  
Precipitation 0.00 in - - ()
Sea Level Pressure  
Sea Level Pressure 29.92 in    
Wind  
Wind Speed 2 mph (SSE)    
Max Wind Speed 10 mph    
Max Gust Speed -    
Visibility 10 miles    
Events      
Averages and records for this station are not official NWS values.
T = Trace of Precipitation, MM = Missing Value Source: NWS Daily Summary

Daily Weather History Graph

Daily Weather History Graph

Search for Another Location

Airport or City:

Trip Planner

Search our weather history database for the weather conditions in past years. The results will help you decide how hot, cold, wet, or windy it might be!

Date:

Astronomy

Oct. 24, 2012 Rise Set
Actual Time 6:31 AM HST 6:00 PM HST
Civil Twilight 6:09 AM HST 6:23 PM HST
Nautical Twilight 5:43 AM HST 6:49 PM HST
Astronomical Twilight 5:17 AM HST 7:15 PM HST
Moon 2:53 PM HST 2:12 AM HST
Length of Visible Light 12h 14m
Length of Day
11h 28m
Waxing Gibbous, 78% of the Moon is Illuminated
Oct 24
Waxing Gibbous
Oct 29
Full
Nov 6
Last Quarter
Nov 13
New
Nov 20
First Quarter

Hourly Weather History & Observations

Time (HST) Temp. Heat Index Dew Point Humidity Pressure Visibility Wind Dir Wind Speed Gust Speed Precip Events Conditions
12:53 AM 75.0 °F - 68.0 °F 79% 29.96 in 10.0 mi Calm Calm - N/A   Overcast
1:53 AM 75.0 °F - 68.0 °F 79% 29.94 in 10.0 mi Calm Calm - N/A   Overcast
2:53 AM 73.9 °F - 66.9 °F 79% 29.91 in 10.0 mi Calm Calm - N/A   Partly Cloudy
3:53 AM 71.1 °F - 66.0 °F 84% 29.91 in 10.0 mi Calm Calm - N/A   Mostly Cloudy
4:53 AM 72.0 °F - 66.0 °F 81% 29.91 in 10.0 mi Calm Calm - N/A   Scattered Clouds
5:53 AM 71.1 °F - 64.9 °F 81% 29.91 in 10.0 mi Calm Calm - N/A   Clear
6:53 AM 71.1 °F - 66.0 °F 84% 29.93 in 10.0 mi Calm Calm - N/A   Clear
7:53 AM 75.9 °F - 68.0 °F 76% 29.94 in 10.0 mi Calm Calm - N/A   Partly Cloudy
8:53 AM 80.1 °F 83.2 °F 70.0 °F 71% 29.95 in 10.0 mi SE 5.8 mph - N/A   Clear
9:53 AM 81.0 °F 84.4 °F 70.0 °F 69% 29.95 in 10.0 mi SE 6.9 mph - N/A   Clear
10:53 AM 82.0 °F 86.3 °F 71.1 °F 69% 29.95 in 10.0 mi SSE 9.2 mph - N/A   Partly Cloudy
11:53 AM 82.0 °F 85.9 °F 70.0 °F 67% 29.92 in 10.0 mi SSE 10.4 mph - N/A   Partly Cloudy
12:53 PM 80.1 °F 83.6 °F 71.1 °F 74% 29.90 in 10.0 mi South 8.1 mph - N/A   Mostly Cloudy
1:53 PM 80.1 °F 82.9 °F 69.1 °F 69% 29.88 in 10.0 mi South 4.6 mph - N/A   Overcast
2:53 PM 80.1 °F 83.6 °F 71.1 °F 74% 29.88 in 10.0 mi Variable 6.9 mph - N/A   Mostly Cloudy
3:53 PM 80.1 °F 83.6 °F 71.1 °F 74% 29.87 in 10.0 mi SSE 4.6 mph - N/A   Mostly Cloudy
4:53 PM 79.0 °F - 71.1 °F 77% 29.88 in 10.0 mi Calm Calm - N/A   Scattered Clouds
5:53 PM 78.1 °F - 70.0 °F 76% 29.88 in 10.0 mi Calm Calm - N/A   Clear
6:53 PM 77.0 °F - 71.1 °F 82% 29.91 in 10.0 mi Calm Calm - N/A   Scattered Clouds
7:53 PM 77.0 °F - 70.0 °F 79% 29.93 in 10.0 mi Calm Calm - N/A   Mostly Cloudy
8:53 PM 75.9 °F - 73.0 °F 91% 29.94 in 10.0 mi Calm Calm - 0.00 in   Mostly Cloudy
9:31 PM 75.2 °F - 73.4 °F 94% 29.94 in 10.0 mi Calm Calm - N/A   Mostly Cloudy
9:53 PM 75.9 °F - 73.0 °F 91% 29.96 in 10.0 mi Calm Calm - 0.00 in   Overcast
10:07 PM 77.0 °F - 73.4 °F 89% 29.94 in 10.0 mi Calm Calm - N/A   Overcast
10:53 PM 75.9 °F - 73.0 °F 91% 29.96 in 10.0 mi Calm Calm - N/A   Overcast
11:53 PM 75.9 °F - 72.0 °F 87% 29.96 in 10.0 mi Calm Calm - N/A   Overcast